Location: Cheching
(60.0667°N, 164.2167°W)
Time: 07:47:46
(UTC+00:00)

DIWATA 2B (PO-101) - Visible Passes

Search period start: 27 June 2022 00:00
Search period end: 07 July 2022 00:00
Orbit: 585 x 597 km, 98.0° (Epoch: 26 June)

Date Brightness Start Highest point End Pass type
(mag) Time Alt. Az. Time Alt. Az. Time Alt. Az.
27 Jun ? 10:49:40 10° E 10:52:52 21° NE 10:56:05 10° N visible
28 Jun ? 10:57:45 10° ESE 11:01:08 24° NE 11:04:32 10° N visible
29 Jun ? 11:05:53 10° ESE 11:09:25 26° NE 11:12:57 10° N visible
30 Jun ? 11:14:01 10° ESE 11:17:41 30° ENE 11:21:22 10° N visible
01 Jul ? 11:22:11 10° ESE 11:25:59 33° ENE 11:29:47 10° N visible
02 Jul ? 11:30:22 10° SE 11:34:16 38° ENE 11:38:11 10° N visible
03 Jul ? 10:06:15 10° ENE 10:07:58 12° NE 10:09:41 10° NNE visible
03 Jul ? 11:38:34 10° SE 11:42:34 43° ENE 11:46:34 10° N visible
04 Jul ? 10:14:06 10° ENE 10:16:11 14° NE 10:18:16 10° NNE visible
04 Jul ? 11:46:48 10° SE 11:50:52 49° ENE 11:54:58 10° N visible
05 Jul ? 10:22:02 10° E 10:24:25 15° NE 10:26:48 10° N visible
05 Jul ? 11:55:03 10° SE 11:59:10 56° ENE 12:03:20 10° NNW visible
06 Jul ? 10:30:01 10° E 10:32:39 16° NE 10:35:18 10° N visible
06 Jul ? 12:03:19 10° SSE 12:07:29 65° ENE 12:11:42 10° NNW visible
